Location: Audinghen
(50.8518°N, 1.6129°E)
Time: 10:38:34
(UTC+00:00)

Cosmos 1437 - Pass Details

Date: 07 August 2020
Orbit: 368 x 371 km, 81.2° (Epoch: 20 September)

Event Time Altitude Azimuth Distance (km) Brightness Sun altitude
Rises 01:42:47 0° 337° (NNW) 2,236 7.0 -19.1°
Reaches altitude 10° 01:44:58 10° 324° (NW) 1,380 5.7 -18.9°
Enters shadow 01:46:33 21° 297° (WNW) 899 4.4 -18.8°
